User: anonymous   Login
Location: ??????
(55.8274°N, 37.9338°E)
Time: 05:38:30
(UTC+00:00)
Language:

IDEFIX/ARIANE 42P - Orbit

View from above orbital plane
View from above orbital plane
View from above satellite
View from above satellite

Ground track
Ground track

The orbit data is extracted from the following two-line orbital elements,

1 27422U 02021B   24174.39790272  .00000339  00000-0  14765-3 0  9990
2 27422  98.5276 111.9783 0010993 225.1954 134.8335 14.30142739154614
Epoch (UTC): 22 June 2024 09:32:58
Eccentricity: 0.0010993
inclination: 98.5276°
perigee height: 783 km
apogee height: 799 km
right ascension of ascending node: 111.9783°
argument of perigee: 225.1954°
revolutions per day: 14.30142739
mean anomaly at epoch: 134.8335°
orbit number at epoch: 15461

The dashed part of the orbit path shows where the satellite is in the earth's shadow,  

DLR